Date,TemperatureHighF,TemperatureAvgF,TemperatureLowF,DewpointHighF,DewpointAvgF,DewpointLowF,HumidityHigh,HumidityAvg,HumidityLow,PressureMaxIn,PressureMinIn,WindSpeedMaxMPH,WindSpeedAvgMPH,GustSpeedMaxMPH,PrecipitationSumIn
2013-3-1,36,32,30,27,24,21,83,71,60,29.71,29.60,0,0,0,0.01
2013-3-2,30,29,26,22,19,15,75,67,59,29.72,29.66,0,0,0,0.00
2013-3-3,29,24,22,18,15,12,74,67,58,29.81,29.71,0,0,0,0.00
2013-3-4,44,27,21,15,12,8,72,56,25,29.92,29.80,0,0,0,0.00
2013-3-5,45,34,31,33,25,13,97,70,44,29.85,29.39,0,0,0,0.47
2013-3-6,34,31,27,32,27,21,97,85,70,29.91,29.39,0,0,0,0.12
2013-3-7,34,31,30,26,26,22,85,79,63,30.08,29.90,0,0,0,0.01
2013-3-8,43,34,31,25,23,20,75,66,47,30.14,30.02,0,0,0,0.00
2013-3-9,59,37,27,30,24,21,84,62,25,30.15,30.01,0,0,0,0.00
2013-3-10,62,46,38,33,28,24,58,48,31,30.05,29.91,0,0,0,0.00
2013-3-11,54,50,45,50,37,26,94,62,46,29.94,29.61,0,0,0,0.26
2013-3-12,52,48,36,51,44,28,98,87,54,29.78,29.47,0,0,0,0.78
2013-3-13,38,35,26,31,26,15,90,69,45,29.97,29.74,0,0,0,0.01
2013-3-14,43,31,22,17,14,11,74,53,30,30.09,29.94,0,0,0,0.00
2013-3-15,59,43,31,35,25,13,63,49,35,29.97,29.65,0,0,0,0.00
2013-3-16,70,55,42,52,43,33,86,66,41,29.65,29.37,0,0,0,0.05
2013-3-17,54,48,33,49,44,32,97,86,80,29.94,29.58,0,0,0,0.39
2013-3-18,33,32,29,32,31,28,97,97,96,29.97,29.69,0,0,0,0.31
2013-3-19,54,38,32,40,29,0,99,75,14,29.82,29.62,0,0,0,0.01
2013-3-20,49,36,30,28,10,3,85,34,19,29.86,29.58,0,0,0,0.00
2013-3-21,30,25,20,26,17,9,83,71,48,29.81,29.56,0,0,0,0.00
2013-3-22,45,30,17,15,11,7,68,47,27,29.89,29.76,0,0,0,0.00
2013-3-23,52,35,30,28,17,13,63,47,32,29.84,29.69,0,0,0,0.00
2013-3-24,40,33,28,30,26,20,97,78,46,29.70,29.35,0,0,0,0.11
2013-3-25,35,29,27,30,26,22,97,91,64,29.59,29.32,0,0,0,0.43
2013-3-26,37,32,30,29,25,23,83,76,64,29.92,29.59,0,0,0,0.16
2013-3-27,40,32,28,27,24,21,82,74,52,30.04,29.92,0,0,0,0.02
2013-3-28,43,33,31,26,23,20,80,68,43,30.08,29.99,0,0,0,0.00
2013-3-29,55,37,28,27,23,21,79,59,28,30.12,29.96,0,0,0,0.00
2013-3-30,60,41,30,34,28,25,90,64,27,30.04,29.82,0,0,0,0.00
2013-3-31,55,48,43,50,36,27,98,65,43,29.82,29.55,0,0,0,0.45